• In Netherlands
  • List of Countries
  • For 7 days
  • Water Temperature
  • Satellite Maps
  • Weather Map
  • Weather Widgets
  • user-avatar
    Login

    Hourly Weather Encamp

    Today, 23 May, Tuesday

    Time Temperature Precipitation Wind Pressure Humidity
    00:00 +6°C° 0 mm 2 mps 626 mmHg 91%
    01:00 +6°C° 0.1 mm 2 mps 626 mmHg 92%
    02:00 +5°C° 0.1 mm 2 mps 626 mmHg 92%
    03:00 +5°C° 0.1 mm 2 mps 626 mmHg 93%
    04:00 +6°C° 0 mm 2 mps 626 mmHg 91%
    05:00 +7°C° 0 mm 2 mps 627 mmHg 88%
    06:00 +8°C° 0 mm 2 mps 627 mmHg 86%
    07:00 +11°C° 0 mm 1 mps 628 mmHg 76%
    08:00 +14°C° 0 mm 1 mps 629 mmHg 66%
    09:00 +16°C° 0 mm 1 mps 630 mmHg 56%
    10:00 +18°C° 0 mm 1 mps 631 mmHg 54%
    11:00 +19°C° 0 mm 1 mps 631 mmHg 52%
    12:00 +20°C° 0 mm 1 mps 631 mmHg 50%
    13:00 +19°C° 0.1 mm 1 mps 631 mmHg 54%
    14:00 +18°C° 0.1 mm 1 mps 630 mmHg 59%
    15:00 +18°C° 0.1 mm 1 mps 630 mmHg 63%
    16:00 +16°C° 0.1 mm 1 mps 629 mmHg 67%
    17:00 +15°C° 0.1 mm 1 mps 629 mmHg 71%
    18:00 +15°C° 0.1 mm 1 mps 629 mmHg 75%
    19:00 +13°C° 0 mm 1 mps 629 mmHg 81%
    20:00 +11°C° 0 mm 1 mps 628 mmHg 87%
    21:00 +9°C° 0 mm 1 mps 628 mmHg 93%
    22:00 +9°C° 0 mm 1 mps 627 mmHg 92%
    23:00 +9°C° 0 mm 1 mps 627 mmHg 92%

    Tomorrow, 24 May, Wednesday

    Time Temperature Precipitation Wind Pressure Humidity
    00:00 +8°C° 0 mm 1 mps 627 mmHg 92%
    01:00 +8°C° 0 mm 1 mps 627 mmHg 90%
    02:00 +7°C° 0 mm 1 mps 627 mmHg 88%
    03:00 +7°C° 0 mm 1 mps 626 mmHg 86%
    04:00 +9°C° 0 mm 1 mps 627 mmHg 81%
    05:00 +10°C° 0 mm 1 mps 628 mmHg 76%
    06:00 +12°C° 0 mm 1 mps 628 mmHg 71%
    07:00 +14°C° 0 mm 1 mps 629 mmHg 63%
    08:00 +16°C° 0 mm 1 mps 630 mmHg 55%
    09:00 +19°C° 0 mm 1 mps 631 mmHg 47%
    10:00 +20°C° 0 mm 1 mps 631 mmHg 45%
    11:00 +22°C° 0 mm 1 mps 631 mmHg 42%
    12:00 +23°C° 0 mm 1 mps 631 mmHg 40%
    13:00 +22°C° 0 mm 1 mps 631 mmHg 42%
    14:00 +21°C° 0 mm 2 mps 631 mmHg 44%
    15:00 +21°C° 0 mm 2 mps 630 mmHg 46%
    16:00 +20°C° 0.1 mm 1 mps 629 mmHg 54%
    17:00 +19°C° 0.1 mm 1 mps 629 mmHg 62%
    18:00 +18°C° 0.1 mm 1 mps 628 mmHg 69%
    19:00 +14°C° 0 mm 1 mps 627 mmHg 75%
    20:00 +12°C° 0 mm 1 mps 627 mmHg 81%
    21:00 +10°C° 0 mm 1 mps 626 mmHg 88%
    22:00 +8°C° 0 mm 0 mps 626 mmHg 88%
    23:00 +8°C° 0 mm 0 mps 625 mmHg 89%

    Day after tomorrow, 25 May, Thursday

    Time Temperature Precipitation Wind Pressure Humidity
    00:00 +7°C° 0 mm 0 mps 625 mmHg 89%
    01:00 +7°C° 0 mm 0 mps 625 mmHg 89%
    02:00 +7°C° 0 mm 0 mps 624 mmHg 89%
    03:00 +8°C° 0 mm 1 mps 624 mmHg 89%
    04:00 +10°C° 0 mm 1 mps 625 mmHg 84%
    05:00 +11°C° 0 mm 0 mps 626 mmHg 79%
    06:00 +13°C° 0 mm 0 mps 627 mmHg 75%
    07:00 +16°C° 0 mm 1 mps 628 mmHg 66%
    08:00 +19°C° 0 mm 1 mps 628 mmHg 57%
    09:00 +21°C° 0 mm 1 mps 629 mmHg 49%
    10:00 +22°C° 0 mm 1 mps 629 mmHg 47%
    11:00 +21°C° 0 mm 2 mps 629 mmHg 45%
    12:00 +23°C° 0 mm 2 mps 629 mmHg 43%
    13:00 +23°C° 0.1 mm 2 mps 629 mmHg 45%
    14:00 +21°C° 0.1 mm 2 mps 629 mmHg 47%
    15:00 +21°C° 0.1 mm 2 mps 628 mmHg 49%
    16:00 +20°C° 0 mm 2 mps 628 mmHg 53%
    17:00 +19°C° 0 mm 2 mps 627 mmHg 57%
    18:00 +19°C° 0 mm 1 mps 627 mmHg 61%
    19:00 +16°C° 0 mm 1 mps 626 mmHg 69%
    20:00 +13°C° 0 mm 1 mps 625 mmHg 76%
    21:00 +10°C° 0 mm 1 mps 624 mmHg 83%
    22:00 +10°C° 0 mm 1 mps 624 mmHg 83%
    23:00 +10°C° 0 mm 1 mps 624 mmHg 82%

    26 May, Friday

    Time Temperature Precipitation Wind Pressure Humidity
    00:00 +9°C° 0 mm 1 mps 624 mmHg 82%
    01:00 +9°C° 0 mm 1 mps 624 mmHg 81%
    02:00 +9°C° 0 mm 1 mps 623 mmHg 81%
    03:00 +9°C° 0 mm 1 mps 623 mmHg 80%
    04:00 +10°C° 0 mm 1 mps 624 mmHg 76%
    05:00 +12°C° 0 mm 1 mps 624 mmHg 72%
    06:00 +13°C° 0 mm 1 mps 625 mmHg 68%
    07:00 +16°C° 0 mm 1 mps 626 mmHg 58%
    08:00 +19°C° 0 mm 1 mps 626 mmHg 48%
    09:00 +22°C° 0 mm 1 mps 627 mmHg 38%
    10:00 +23°C° 0 mm 1 mps 627 mmHg 36%
    11:00 +24°C° 0 mm 2 mps 627 mmHg 34%
    12:00 +25°C° 0 mm 2 mps 628 mmHg 32%
    13:00 +24°C° 0 mm 3 mps 627 mmHg 34%
    14:00 +24°C° 0 mm 3 mps 627 mmHg 35%
    15:00 +24°C° 0 mm 3 mps 626 mmHg 36%
    16:00 +21°C° 0 mm 3 mps 626 mmHg 44%
    17:00 +20°C° 0 mm 2 mps 625 mmHg 51%
    18:00 +18°C° 0 mm 2 mps 624 mmHg 58%
    19:00 +16°C° 0.1 mm 2 mps 624 mmHg 65%
    20:00 +14°C° 0.1 mm 2 mps 623 mmHg 72%
    21:00 +11°C° 0.1 mm 1 mps 622 mmHg 79%
    22:00 +11°C° 0 mm 1 mps 622 mmHg 79%
    23:00 +10°C° 0 mm 1 mps 622 mmHg 78%

    27 May, Saturday

    Time Temperature Precipitation Wind Pressure Humidity
    00:00 +10°C° 0 mm 1 mps 622 mmHg 78%
    01:00 +10°C° 0 mm 1 mps 622 mmHg 77%
    02:00 +9°C° 0 mm 1 mps 621 mmHg 77%
    03:00 +9°C° 0 mm 1 mps 621 mmHg 76%
    04:00 +10°C° 0 mm 1 mps 622 mmHg 74%
    05:00 +12°C° 0 mm 1 mps 623 mmHg 72%
    06:00 +13°C° 0 mm 1 mps 623 mmHg 70%
    07:00 +15°C° 0 mm 1 mps 624 mmHg 64%
    08:00 +17°C° 0 mm 2 mps 625 mmHg 58%
    09:00 +18°C° 0 mm 2 mps 626 mmHg 52%
    10:00 +19°C° 0.1 mm 2 mps 626 mmHg 52%
    11:00 +19°C° 0.1 mm 3 mps 626 mmHg 51%
    12:00 +20°C° 0.1 mm 3 mps 626 mmHg 51%
    13:00 +19°C° 0.6 mm 3 mps 626 mmHg 55%
    14:00 +19°C° 0.6 mm 3 mps 626 mmHg 58%
    15:00 +19°C° 0.6 mm 3 mps 626 mmHg 62%
    16:00 +17°C° 0.8 mm 2 mps 625 mmHg 68%
    17:00 +16°C° 0.8 mm 2 mps 625 mmHg 74%
    18:00 +15°C° 0.8 mm 2 mps 625 mmHg 79%
    19:00 +14°C° 0.3 mm 1 mps 624 mmHg 84%
    20:00 +12°C° 0.3 mm 1 mps 624 mmHg 89%
    21:00 +11°C° 0.3 mm 1 mps 624 mmHg 94%
    22:00 +10°C° 0.1 mm 1 mps 624 mmHg 94%
    23:00 +10°C° 0.1 mm 1 mps 623 mmHg 94%

    28 May, Sunday

    Time Temperature Precipitation Wind Pressure Humidity
    00:00 +9°C° 0.1 mm 1 mps 623 mmHg 94%
    01:00 +9°C° 0 mm 1 mps 623 mmHg 94%
    02:00 +9°C° 0 mm 1 mps 623 mmHg 94%
    03:00 +9°C° 0 mm 1 mps 623 mmHg 94%
    04:00 +10°C° 0 mm 1 mps 624 mmHg 91%
    05:00 +11°C° 0 mm 1 mps 624 mmHg 89%
    06:00 +12°C° 0 mm 1 mps 625 mmHg 86%
    07:00 +14°C° 0 mm 2 mps 626 mmHg 77%
    08:00 +16°C° 0 mm 2 mps 627 mmHg 68%
    09:00 +18°C° 0 mm 3 mps 628 mmHg 59%
    10:00 +19°C° 0 mm 3 mps 628 mmHg 54%
    11:00 +20°C° 0 mm 4 mps 628 mmHg 50%
    12:00 +21°C° 0 mm 4 mps 628 mmHg 45%
    13:00 +21°C° 0.1 mm 4 mps 628 mmHg 46%
    14:00 +21°C° 0.1 mm 4 mps 628 mmHg 47%
    15:00 +20°C° 0.1 mm 4 mps 628 mmHg 49%
    16:00 +19°C° 0.1 mm 4 mps 627 mmHg 53%
    17:00 +18°C° 0.1 mm 4 mps 627 mmHg 57%
    18:00 +17°C° 0.1 mm 3 mps 626 mmHg 62%
    19:00 +14°C° 0 mm 3 mps 626 mmHg 67%
    20:00 +12°C° 0 mm 3 mps 625 mmHg 72%
    21:00 +10°C° 0 mm 2 mps 625 mmHg 76%
    22:00 +10°C° 0 mm 2 mps 625 mmHg 72%
    23:00 +10°C° 0 mm 2 mps 625 mmHg 67%
    Show more